Weather History for Lancaster, OH

Change the Weather History Date:

Sunday, March 24, 2013

  Actual Average Record
Temperature  
Mean Temperature 33 °F -  
Max Temperature 36 °F 52 °F 82 °F (1939)
Min Temperature 30 °F 28 °F 11 °F (1974)
Degree Days  
Heating Degree Days 32    
Moisture  
Dew Point 26 °F    
Average Humidity 77    
Maximum Humidity 93    
Minimum Humidity 54    
Precipitation  
Precipitation 0.32 in - - ()
Sea Level Pressure  
Sea Level Pressure 29.65 in    
Wind  
Wind Speed 9 mph (East)    
Max Wind Speed 20 mph    
Max Gust Speed 26 mph    
Visibility 6 miles    
Events Fog , Rain , Snow    
Averages and records for this station are not official NWS values.
T = Trace of Precipitation, MM = Missing Value Source: NWS Daily Summary

Daily Weather History Graph

Daily Weather History Graph

Search for Another Location

Airport:

Trip Planner

Search our weather history database for the weather conditions in past years. The results will help you decide how hot, cold, wet, or windy it might be!

Date:

Astronomy

Mar. 24, 2013 Rise Set
Actual Time 7:27 AM EDT 7:46 PM EDT
Civil Twilight 7:00 AM EDT 8:13 PM EDT
Nautical Twilight 6:28 AM EDT 8:45 PM EDT
Astronomical Twilight 5:56 AM EDT 9:18 PM EDT
Moon 5:14 PM EDT (3/24) 5:36 AM EDT (3/24)
Length of Visible Light 13h 13m
Length of Day
12h 19m
Waxing Gibbous, 91% of the Moon is Illuminated
Mar 24
Waxing Gibbous
Mar 27
Full
Apr 3
Last Quarter
Apr 10
New
Apr 18
First Quarter

Hourly Weather History & Observations

Time (EDT) Temp. Windchill Dew Point Humidity Pressure Visibility Wind Dir Wind Speed Gust Speed Precip Events Conditions
12:53 AM 34.0 °F 28.8 °F 24.1 °F 67% 29.94 in 9.0 mi NE 5.8 mph - N/A   Clear
1:53 AM 33.1 °F 28.7 °F 24.1 °F 70% 29.94 in 9.0 mi East 4.6 mph - N/A   Clear
2:53 AM 33.1 °F 27.7 °F 24.1 °F 70% 29.94 in 9.0 mi ENE 5.8 mph - N/A   Clear
3:53 AM 32.0 °F 26.4 °F 24.1 °F 73% 29.94 in 9.0 mi East 5.8 mph - N/A   Clear
4:53 AM 32.0 °F 26.4 °F 23.0 °F 69% 29.92 in 10.0 mi East 5.8 mph - N/A   Clear
5:53 AM 32.0 °F 25.6 °F 23.0 °F 69% 29.89 in 10.0 mi ENE 6.9 mph - N/A   Clear
6:53 AM 30.9 °F 24.3 °F 21.9 °F 69% 29.88 in 10.0 mi ENE 6.9 mph - N/A   Clear
7:53 AM 30.9 °F 22.2 °F 21.9 °F 69% 29.84 in 10.0 mi ENE 10.4 mph - N/A   Clear
8:53 AM 32.0 °F 24.2 °F 21.0 °F 64% 29.82 in 10.0 mi East 9.2 mph - N/A   Clear
9:53 AM 33.1 °F 25.5 °F 21.0 °F 61% 29.78 in 10.0 mi East 9.2 mph 18.4 mph N/A   Clear
10:53 AM 34.0 °F 26.6 °F 19.9 °F 56% 29.75 in 10.0 mi East 9.2 mph 16.1 mph N/A   Clear
11:53 AM 35.1 °F 27.4 °F 19.9 °F 54% 29.73 in 10.0 mi ENE 10.4 mph - N/A   Overcast
12:53 PM 36.0 °F 29.0 °F 21.0 °F 55% 29.72 in 10.0 mi NE 9.2 mph - N/A   Overcast
1:50 PM 35.6 °F 28.0 °F 21.2 °F 56% 29.70 in 10.0 mi NE 10.4 mph - N/A   Overcast
1:53 PM 36.0 °F 29.6 °F 21.9 °F 57% 29.71 in 3.0 mi ENE 8.1 mph - 0.00 in Snow Light Snow
1:55 PM 35.6 °F 25.9 °F 23.0 °F 60% 29.69 in 1.5 mi ENE 16.1 mph 24.2 mph 0.00 in Snow Light Snow
1:57 PM 33.8 °F 24.8 °F 24.8 °F 70% 29.69 in 0.8 mi ENE 12.7 mph 24.2 mph 0.00 in Snow Light Snow
2:09 PM 32.0 °F 24.2 °F 26.6 °F 80% 29.69 in 0.5 mi East 9.2 mph - 0.00 in Snow Snow
2:17 PM 32.0 °F 23.0 °F 26.6 °F 80% 29.68 in 0.2 mi ENE 11.5 mph - 0.01 in Snow Heavy Snow
2:27 PM 30.2 °F 21.3 °F 28.4 °F 93% 29.67 in 0.2 mi ENE 10.4 mph - 0.02 in Fog , Snow Heavy Snow
2:53 PM 30.9 °F 22.2 °F 28.0 °F 89% 29.65 in 0.5 mi East 10.4 mph - 0.04 in Fog , Snow Snow
3:10 PM 30.2 °F 22.6 °F 28.4 °F 93% 29.62 in 0.2 mi ENE 8.1 mph - 0.02 in Fog , Snow Heavy Snow
3:46 PM 32.0 °F 22.5 °F 28.4 °F 87% 29.59 in 1.0 mi East 12.7 mph 18.4 mph 0.04 in Snow Light Snow
3:53 PM 33.1 °F 23.9 °F 28.9 °F 85% 29.61 in 1.0 mi East 12.7 mph - 0.04 in Snow Light Snow
3:59 PM 33.8 °F 24.3 °F 28.4 °F 81% 29.58 in 1.0 mi East 13.8 mph - 0.00 in Snow Light Snow
4:06 PM 33.8 °F 24.8 °F 28.4 °F 81% 29.58 in 1.2 mi ENE 12.7 mph - 0.00 in Snow Light Snow
4:18 PM 33.8 °F 25.3 °F 28.4 °F 81% 29.57 in 2.5 mi East 11.5 mph 20.7 mph 0.00 in Snow Light Snow
4:24 PM 33.8 °F 24.8 °F 28.4 °F 81% 29.56 in 4.0 mi East 12.7 mph 20.7 mph 0.00 in Snow Light Snow
4:41 PM 33.8 °F 23.2 °F 28.4 °F 81% 29.55 in 9.0 mi East 17.3 mph 24.2 mph 0.00 in   Overcast
4:53 PM 34.0 °F 23.8 °F 28.9 °F 82% 29.56 in 10.0 mi East 16.1 mph 23.0 mph 0.00 in   Overcast
5:07 PM 33.8 °F 23.5 °F 28.4 °F 81% 29.53 in 10.0 mi East 16.1 mph 24.2 mph N/A   Overcast
5:20 PM 33.8 °F 22.5 °F 28.4 °F 81% 29.52 in 10.0 mi East 19.6 mph 26.5 mph N/A   Overcast
5:53 PM 34.0 °F 25.0 °F 28.9 °F 82% 29.57 in 10.0 mi East 12.7 mph - N/A   Overcast
6:53 PM 34.0 °F 25.5 °F 28.9 °F 82% 29.54 in 10.0 mi East 11.5 mph 21.9 mph N/A   Overcast
7:53 PM 34.0 °F 24.6 °F 28.9 °F 82% 29.52 in 8.0 mi East 13.8 mph - N/A   Overcast
8:26 PM 33.8 °F 24.3 °F 30.2 °F 87% 29.48 in 6.0 mi East 13.8 mph 18.4 mph N/A   Overcast
8:53 PM 35.1 °F 25.2 °F 28.9 °F 78% 29.47 in 10.0 mi East 16.1 mph 23.0 mph N/A   Overcast
9:53 PM 35.1 °F 28.6 °F 30.0 °F 82% 29.50 in 6.0 mi ESE 8.1 mph - 0.00 in Rain Rain
10:12 PM 33.8 °F 25.8 °F 30.2 °F 87% 29.45 in 2.0 mi ENE 10.4 mph - 0.02 in Snow Light Snow
10:28 PM 33.8 °F 28.6 °F 30.2 °F 87% 29.46 in 2.5 mi ESE 5.8 mph - 0.03 in Snow Light Snow
10:37 PM 33.8 °F 29.6 °F 30.2 °F 87% 29.46 in 1.8 mi ESE 4.6 mph - 0.04 in Snow Light Snow
10:45 PM 33.8 °F 30.8 °F 30.2 °F 87% 29.46 in 0.8 mi ESE 3.5 mph - 0.06 in Snow Light Snow
10:53 PM 33.1 °F 30.0 °F 30.9 °F 92% 29.48 in 0.5 mi ESE 3.5 mph - 0.09 in Fog , Snow Snow
11:17 PM 33.8 °F 30.8 °F 30.2 °F 87% 29.44 in 0.5 mi ENE 3.5 mph - 0.08 in Fog , Snow Snow
11:53 PM 33.1 °F 28.7 °F 30.9 °F 92% 29.44 in 1.0 mi ENE 4.6 mph - 0.15 in Snow Light Snow